Orbital Elements at Epoch 2459200.5 (2020-Dec-17.0) TDB
Reference: JPL 38 (heliocentric ecliptic J2000)
Element | Value | Uncertainty (1-sigma) | Units |
e | .114416993519741 | 4.7172e-08 | |
a | 3.055434415261922 | 1.8819e-08 | au |
q | 2.705840795570905 | 1.4223e-07 | au |
i | 9.435234885698746 | 4.953e-06 | deg |
node | 328.4379321477467 | 2.3187e-05 | deg |
peri | 356.3807588291891 | 3.0169e-05 | deg |
M | 190.6374742555077 | 2.2091e-05 | deg |
tp | 2460118.246415595286 (2023-Jun-22.74641560) | 0.00012361 | TDB |
period | 1950.778120259859 5.34 | 1.8023e-05 4.934e-08 | d yr |
n | .1845417458096388 | 1.705e-09 | deg/d |
Q | 3.405028034952938 | 2.0972e-08 | au |
|
| | Orbit Determination Parameters
Additional Information
|